Temperature
22 21 21 21 19 18 19 20 20 20 21 21 20 20 19 18 18 17 17 18 18 18 18 18 18 18 18 18 18 18 18 18 18 18 18 18 18 18 18 18 18 18 18 18 18 18 18 18 18
22 22 21 21 18 18 19 20 20 21 21 21 21 20 19 18 18 18 18 18 18 18 18 18 18 18 18 18 18 18 18 18 18 18 17 18 18 18 18 18 18 18 18 18 18 18 18 17 18
22 22 21 18 19 19 20 20 20 22 22 22 20 20 19 18 18 18 18 18 18 18 18 18 18 18 18 18 18 18 18 18 18 18 17 17 17 18 18 18 18 18 18 18 18 17 17 17 17
22 22 21 19 19 20 20 20 21 22 22 21 20 19 19 19 19 18 18 18 18 18 18 18 18 18 18 18 18 18 18 18 18 18 18 17 17 18 18 18 18 18 18 17 17 17 17 17 17
22 22 19 19 20 21 20 21 22 21 21 20 20 18 18 19 19 18 18 18 18 18 18 18 18 18 18 18 18 18 18 18 18 17 17 17 17 17 17 17 17 17 17 17 17 17 17 17 17
23 20 18 19 20 21 21 21 21 21 20 20 19 18 18 18 19 18 18 18 18 18 18 18 18 18 18 18 18 18 18 18 17 17 17 17 17 17 17 17 17 17 17 17 17 17 17 17 16
22 19 19 19 20 21 22 22 21 20 20 20 20 18 18 18 19 19 18 18 18 18 18 18 18 18 18 18 18 18 18 18 17 17 17 17 17 17 17 17 17 17 17 17 17 17 17 16 16
23 19 20 19 20 21 22 22 22 21 21 20 20 18 18 19 19 19 19 18 18 18 18 18 18 18 18 18 18 18 17 17 17 17 17 17 17 17 17 17 17 17 16 16 16 16 16 16 16
23 18 19 20 20 21 22 22 22 21 21 20 20 20 19 19 19 19 19 18 18 18 18 18 18 18 18 18 18 17 17 17 17 17 17 17 17 17 17 17 16 16 16 16 16 16 16 16 16
22 19 21 21 21 21 22 22 22 21 20 20 20 19 19 19 19 19 19 19 18 18 18 18 18 18 18 18 17 17 17 17 17 17 17 17 17 17 16 16 16 16 16 16 16 16 16 16 16
22 20 22 22 22 22 22 22 22 20 19 19 19 19 19 19 19 19 19 19 19 18 18 18 18 18 18 18 17 17 17 17 17 17 17 17 17 17 16 16 16 16 16 16 16 16 16 16 16
22 22 23 23 23 23 22 22 21 21 21 21 21 20 19 19 19 19 19 19 19 18 18 18 18 18 18 18 17 17 17 17 17 17 17 17 17 16 16 16 16 16 16 16 16 16 16 15 15
22 22 23 23 23 23 22 22 21 21 21 21 20 20 20 19 19 19 19 19 19 19 18 18 18 18 18 18 17 17 17 17 17 17 17 17 17 16 16 16 16 16 16 16 16 16 16 15 15
23 23 23 23 23 23 22 21 21 21 21 21 20 20 20 20 19 19 19 19 19 19 19 18 18 18 18 18 17 17 17 17 17 17 17 17 17 16 16 16 16 16 16 16 16 15 15 15 15
23 22 22 22 23 22 22 21 20 21 21 20 20 20 20 20 20 19 19 19 19 19 19 18 18 18 18 18 17 17 17 17 17 17 17 17 16 16 16 16 16 16 16 16 15 15 15 15 15
22 21 20 22 22 22 21 20 20 21 21 20 20 20 20 20 20 20 19 19 19 19 19 18 18 18 18 18 17 17 17 17 17 17 17 16 16 16 16 16 16 16 16 15 15 15 15 15 15
20 20 20 21 22 22 21 20 20 21 21 20 20 20 20 20 20 19 19 19 19 19 19 18 18 18 18 18 17 17 17 17 17 17 16 16 16 16 16 16 16 16 16 15 15 15 15 15 15
20 20 21 21 22 21 20 19 19 20 20 19 19 19 19 19 19 19 19 19 19 19 19 18 18 18 18 17 17 17 17 17 17 16 16 16 16 16 16 16 16 16 16 15 15 15 15 15 15
21 21 21 21 22 21 20 19 19 19 19 19 19 19 19 19 19 19 19 19 19 19 18 18 18 18 18 17 17 17 17 17 16 16 16 16 16 16 16 16 16 16 16 15 15 15 15 15 15
21 21 21 21 22 21 19 19 19 19 19 19 19 19 19 19 19 19 19 19 19 18 18 18 18 18 18 17 17 17 17 16 16 16 16 16 16 16 16 16 16 16 15 15 15 15 15 14 14
21 21 21 21 21 21 20 19 19 19 19 19 19 19 19 19 19 19 18 18 18 18 18 18 18 18 18 17 17 17 17 16 16 16 16 16 16 16 16 16 15 15 15 15 15 15 15 15 14
21 22 22 22 20 19 20 17 18 18 18 18 18 18 19 19 19 19 18 18 18 18 18 18 18 18 17 17 17 17 17 16 16 16 16 16 16 16 15 15 15 15 15 15 15 15 15 14 14
22 22 22 21 20 19 18 17 17 17 17 17 18 18 18 19 19 19 18 18 18 18 18 18 18 17 17 17 17 17 17 16 16 16 16 16 15 15 15 15 15 15 15 15 15 15 14 14 14
22 21 20 18 17 18 18 17 17 16 17 18 18 18 18 19 18 18 18 18 18 18 18 18 17 17 17 17 17 17 16 16 16 16 16 15 15 15 15 15 15 15 15 15 14 14 14 14 14
20 18 17 17 16 17 18 17 17 18 18 18 18 18 19 19 18 18 18 18 18 18 17 17 17 17 17 17 16 16 16 16 16 16 15 15 15 15 15 15 15 15 14 14 14 14 14 14 14
20 18 17 17 17 17 18 17 17 18 19 19 19 19 19 18 18 18 18 18 17 17 17 17 17 17 17 16 16 16 16 16 16 16 15 15 15 15 15 15 15 15 14 14 14 14 14 14 14
20 18 18 16 17 17 17 17 18 18 18 18 18 18 18 18 18 18 18 17 17 17 17 17 17 16 16 16 16 16 16 16 16 15 15 15 15 15 15 15 14 14 14 14 14 14 14 14 14
20 19 16 17 17 16 17 17 16 17 17 17 17 17 18 18 18 18 17 17 17 17 17 17 16 16 16 16 16 15 15 15 15 15 15 15 15 15 14 14 14 14 14 14 14 14 14 14 14
20 19 17 15 15 16 16 16 18 17 17 16 17 18 18 18 18 17 17 17 17 17 17 16 16 16 16 15 15 15 15 15 15 15 15 15 15 15 14 14 14 14 14 14 14 14 14 14 13
19 19 17 16 16 15 15 16 18 17 17 17 17 18 18 17 17 17 17 17 17 16 16 16 16 15 15 15 15 15 15 15 14 14 14 14 14 14 14 14 14 14 14 14 14 13 13 13 13
Wind_Speed
1 1 3 3 5 5 3 2 2 3 4 5 7 9 8 6 4 5 2 5 6 3 5 8 9 10 11 11 11 12 12 12 12 12 13 13 13 13 13 13 13 13 12 12 11 11 11 11 11
1 1 3 4 5 4 2 1 4 4 6 7 7 8 7 6 4 5 3 5 6 5 6 8 9 10 11 11 11 11 11 12 12 13 13 13 13 13 13 13 13 13 12 12 12 11 11 11 12
1 1 3 4 4 4 3 2 4 4 5 5 5 6 5 4 3 3 5 7 6 6 7 8 10 10 10 10 11 11 12 12 12 12 12 13 13 13 12 12 12 12 12 12 11 11 11 12 12
2 4 5 6 6 2 4 3 4 6 6 6 6 6 4 3 3 5 8 8 7 5 7 9 10 10 10 10 10 11 11 11 11 12 12 12 12 12 12 12 12 12 12 11 11 11 11 12 13
4 5 6 5 3 2 3 3 5 7 5 6 7 6 3 2 5 8 8 8 8 5 6 8 10 10 10 10 10 10 10 11 11 11 11 11 11 11 11 11 11 11 11 11 11 11 11 11 13
4 5 5 4 3 2 2 3 6 9 7 6 7 6 2 1 5 6 7 7 7 6 6 7 9 10 9 10 10 9 9 10 10 10 10 10 10 10 10 10 10 10 10 10 10 10 10 11 12
5 4 3 4 4 3 4 4 6 7 6 4 6 5 3 1 3 5 6 7 6 6 5 5 6 7 8 8 8 8 8 8 8 9 8 8 9 9 9 8 8 9 9 9 9 9 10 10 12
5 5 4 3 4 2 3 4 5 7 5 5 5 7 5 5 4 5 5 6 6 5 4 4 4 4 4 5 6 6 6 7 7 7 7 7 8 8 7 6 6 7 7 7 7 8 10 10 12
5 6 3 3 5 3 4 6 4 5 7 5 4 5 6 7 6 6 5 4 4 5 3 3 3 2 3 3 3 4 4 4 4 4 5 5 5 5 5 5 5 5 6 7 7 7 9 11 12
5 4 2 3 6 6 5 6 5 5 6 4 5 5 6 7 7 6 5 4 4 4 5 4 3 3 2 2 3 2 2 2 2 2 3 4 4 3 3 4 5 6 8 9 9 10 10 10 10
4 5 3 4 6 7 7 5 4 7 4 6 8 8 7 6 6 6 5 5 4 4 5 4 3 3 3 2 3 2 1 1 1 1 2 3 4 3 4 4 4 6 7 8 8 9 9 8 9
5 3 4 5 5 6 6 5 4 4 5 8 11 10 8 7 6 6 6 4 4 4 4 4 4 3 3 3 2 2 1 1 1 1 3 4 3 3 3 3 3 4 5 5 6 6 7 8 9
5 3 5 6 6 5 6 5 5 3 5 9 9 9 8 7 6 5 5 5 4 4 4 4 5 4 4 3 2 2 2 1 2 3 4 5 4 3 2 2 3 4 5 4 4 5 5 6 7
4 5 4 5 5 4 6 4 5 4 7 10 9 8 6 6 5 4 4 4 4 4 4 4 5 5 5 4 3 2 2 2 3 3 4 6 5 4 3 2 3 3 4 5 5 5 5 4 5
4 5 3 1 3 3 6 2 3 6 9 9 8 7 6 5 5 5 5 5 5 5 5 5 5 5 5 4 4 4 3 4 3 3 5 6 5 4 3 2 2 2 5 6 6 6 5 5 5
3 4 1 4 4 4 6 3 5 7 10 8 7 6 5 4 4 4 5 4 4 4 4 4 5 6 5 4 4 3 3 4 3 4 5 6 5 6 4 2 2 3 5 5 3 4 4 4 4
2 1 3 3 4 4 5 4 4 6 9 8 6 5 5 3 2 3 4 5 5 5 5 4 5 5 5 4 4 4 4 3 3 4 4 4 5 6 5 3 2 4 4 3 3 3 3 3 3
3 3 3 4 4 4 4 3 2 5 8 8 7 6 5 4 3 3 3 3 4 4 5 5 5 5 5 4 3 3 3 2 3 3 3 4 5 6 5 3 3 4 3 3 3 3 3 2 2
3 2 3 4 3 5 4 3 3 4 5 6 6 6 6 5 3 3 4 4 4 3 3 4 5 5 5 3 3 2 1 1 1 2 3 4 5 5 5 3 3 3 3 3 3 3 3 2 2
1 0 1 2 2 4 4 2 2 4 6 7 8 7 7 5 2 2 3 4 4 4 3 3 4 5 5 4 3 3 3 1 1 1 2 3 4 4 5 4 3 3 3 3 3 3 2 1 1
2 3 3 3 0 1 3 3 3 2 2 3 5 6 6 7 6 5 4 3 4 3 3 4 3 4 4 4 3 3 3 2 2 1 1 1 3 3 3 4 3 2 3 3 2 3 3 2 0
3 4 3 2 2 3 2 2 5 4 2 3 4 5 5 5 5 5 5 4 4 4 3 4 4 3 3 4 5 6 4 3 2 2 1 0 1 2 3 4 3 2 2 3 2 3 2 3 1
5 4 2 1 2 1 1 2 6 1 2 5 5 6 6 5 6 6 5 5 4 4 4 4 4 3 3 3 5 5 4 3 2 1 2 1 0 1 3 3 3 2 2 2 2 2 3 2 3
1 4 6 5 4 1 4 4 5 4 6 5 5 5 6 5 5 5 4 3 2 2 3 3 4 3 2 3 4 4 5 4 3 2 2 1 1 1 1 2 2 2 2 2 2 3 3 2 2
5 6 4 5 3 5 2 3 6 6 6 8 8 7 6 5 5 4 3 2 2 2 2 3 4 3 2 3 3 3 4 4 5 3 3 2 1 1 2 2 2 2 2 2 2 2 2 3 3
2 7 6 4 4 4 3 2 5 3 2 5 7 7 6 5 4 4 4 3 3 2 3 3 3 2 2 3 3 3 3 3 2 3 3 3 3 3 3 2 3 3 2 2 2 2 2 2 3
3 3 6 6 2 1 3 3 4 2 2 3 4 5 5 5 5 5 4 3 3 3 3 3 3 2 2 2 3 2 2 2 2 2 2 2 2 2 2 2 3 2 2 2 2 1 1 2 2
4 5 5 4 2 2 3 3 4 5 5 4 4 5 5 5 4 4 4 3 3 2 2 2 3 2 2 2 3 3 2 2 2 2 2 2 2 2 2 2 3 3 2 3 2 1 1 2 1
1 2 4 3 4 4 3 6 5 8 7 7 7 6 6 6 6 5 4 3 3 2 2 2 2 2 1 2 2 2 2 1 1 2 2 2 2 2 3 3 3 3 3 3 2 2 2 2 1
4 4 5 4 3 4 4 6 4 6 6 6 6 5 5 5 5 4 4 3 2 2 1 1 2 1 2 2 2 2 2 2 2 2 2 2 3 2 2 2 2 2 3 3 3 3 3 3 2
Wind_Direction
294 17 97 67 56 56 56 23 112 64 58 57 71 82 80 62 86 127 208 135 126 116 102 91 88 88 91 93 92 92 93 94 93 91 89 87 86 84 84 81 79 78 77 77 74 71 66 62 59
43 88 72 60 76 75 40 9 88 95 133 120 80 80 78 69 81 112 120 140 124 115 106 102 98 95 94 95 94 94 96 97 96 94 91 89 87 85 84 81 79 77 75 74 72 70 66 61 57
205 135 78 65 82 124 144 185 122 93 101 98 79 56 69 102 104 126 148 144 124 115 109 109 106 102 99 97 97 97 97 99 99 97 94 92 89 86 83 80 78 76 74 73 70 68 65 60 58
77 49 57 72 83 132 156 178 131 97 65 61 92 68 52 74 132 139 142 136 126 122 120 121 115 109 106 104 102 101 100 101 100 98 97 95 91 88 85 81 78 75 73 72 71 68 64 60 58
69 72 63 67 75 86 125 135 104 93 79 74 89 90 67 18 110 130 139 137 132 134 130 127 122 117 113 111 110 108 107 106 104 101 98 95 91 89 86 84 80 76 73 72 69 65 63 60 58
58 67 82 92 94 81 101 113 100 94 102 100 96 103 115 136 112 132 142 143 141 141 139 131 128 124 120 119 117 116 116 114 110 106 101 98 94 92 90 88 83 78 72 68 66 62 57 55 57
101 89 108 130 116 94 113 101 102 110 108 119 119 106 135 176 151 147 137 136 137 137 134 137 132 127 127 125 122 119 120 119 117 114 111 108 103 99 95 89 82 77 71 65 61 57 55 56 63
122 99 83 107 116 107 117 100 112 107 104 117 111 129 165 200 171 132 124 127 135 132 129 142 140 141 138 133 128 126 124 124 125 124 120 117 111 104 100 91 80 73 68 62 54 50 57 61 66
84 80 99 137 134 130 113 98 89 85 94 78 86 142 165 160 128 109 96 95 118 132 140 153 162 173 167 154 140 132 126 127 129 132 125 115 105 106 98 91 76 63 59 52 44 48 59 65 68
81 102 148 156 147 136 117 109 117 92 84 82 77 95 129 136 127 125 123 122 130 143 159 163 160 173 173 140 118 119 116 110 108 123 123 118 115 119 104 89 65 55 56 55 55 62 66 70 71
108 135 120 97 119 117 111 103 98 113 116 154 150 150 145 137 135 141 151 148 151 154 154 164 166 172 161 131 124 101 84 50 65 105 138 130 112 100 83 62 39 43 54 55 56 58 60 71 80
101 106 113 107 106 108 117 113 99 129 171 166 154 152 148 148 156 159 167 168 154 145 148 153 156 151 153 137 115 102 83 53 54 104 114 120 108 94 85 68 54 56 62 63 61 60 61 72 82
96 107 102 107 100 111 115 119 121 140 145 141 141 142 153 160 166 180 175 160 146 146 150 143 140 138 128 113 101 96 98 91 104 96 98 114 111 105 93 82 72 68 72 76 71 66 70 77 78
140 123 119 119 114 119 119 120 118 166 145 140 145 155 165 167 173 165 161 157 161 159 155 151 136 132 119 110 109 101 91 91 91 89 100 109 118 119 108 85 73 69 75 81 85 83 81 75 79
114 99 68 153 156 157 114 79 177 176 147 149 161 167 169 176 171 166 168 167 173 165 154 151 144 129 124 123 121 108 98 95 85 85 91 96 107 119 113 98 76 75 86 86 82 74 76 77 73
77 91 134 250 181 164 122 200 230 173 152 161 169 170 166 173 166 164 156 151 159 149 146 154 143 129 127 124 119 109 99 88 82 90 86 88 102 109 100 95 90 94 92 91 87 80 73 67 68
45 141 213 243 203 158 143 207 229 182 160 165 171 166 159 154 149 161 158 153 159 157 155 151 139 136 135 130 115 105 95 87 87 89 84 89 93 100 101 90 92 97 86 81 100 87 94 87 74
210 199 213 212 211 143 145 209 229 175 158 165 163 158 153 151 173 155 149 149 152 158 157 149 144 140 132 118 100 87 76 71 78 85 91 95 95 100 100 93 88 94 88 78 85 94 87 99 97
185 170 210 229 202 147 165 195 217 178 161 162 167 167 168 179 190 140 119 120 114 119 144 148 148 148 137 128 126 121 118 92 70 80 96 97 99 104 97 93 93 98 107 112 111 102 92 73 85
153 46 294 288 200 152 158 222 244 178 183 179 175 181 184 177 163 147 120 120 129 126 132 147 161 160 157 154 156 154 151 149 144 67 71 94 103 110 112 108 121 116 110 101 100 107 105 103 105
192 181 215 226 337 67 117 332 303 265 185 171 176 175 180 176 176 176 157 149 140 144 152 153 163 166 166 157 131 106 81 63 50 42 26 47 108 110 110 117 117 120 124 134 135 127 127 138 354
216 214 198 189 114 261 162 228 276 252 234 204 197 177 179 179 176 178 173 166 165 172 165 151 149 146 157 154 147 146 145 157 191 190 186 83 100 110 120 122 118 126 134 145 157 140 136 134 143
213 227 201 190 154 300 310 165 276 271 220 227 207 190 184 180 175 175 183 187 183 169 160 155 139 135 138 149 156 153 149 168 173 154 148 170 265 114 127 132 122 127 140 162 160 141 136 146 155
148 46 32 46 73 303 246 176 263 234 211 202 194 187 181 173 172 176 182 166 155 140 133 140 138 138 133 138 141 149 160 162 151 159 171 192 231 272 179 144 138 143 150 164 172 165 158 160 151
70 77 32 3 7 259 263 159 245 246 214 182 175 181 177 164 160 162 157 152 153 144 133 130 138 143 149 142 149 161 169 168 171 178 183 180 194 224 230 192 174 176 184 168 154 159 163 163 160
164 136 153 200 230 277 329 226 259 271 186 153 154 156 152 154 161 165 168 162 163 156 142 134 146 160 156 154 167 166 159 161 178 185 179 184 197 210 213 197 175 167 164 158 149 157 173 157 162
145 167 172 154 230 265 284 295 317 23 77 110 130 136 159 164 163 169 166 154 158 157 151 147 150 161 163 161 152 157 156 161 178 191 184 189 199 197 194 182 167 161 153 150 144 137 160 151 158
151 153 95 119 177 258 276 242 226 222 208 183 167 174 182 174 167 166 165 164 171 176 166 138 140 160 186 174 166 168 182 186 180 167 182 193 193 187 173 182 177 171 158 153 149 151 165 144 166
114 111 120 133 156 166 241 262 225 203 195 188 193 189 183 180 177 178 181 177 163 138 134 141 155 145 160 172 172 164 184 191 171 175 193 193 187 172 178 184 178 178 173 172 161 175 169 159 174
165 175 147 157 231 182 194 261 268 189 192 189 194 197 190 177 181 181 172 157 149 148 143 155 161 166 195 188 169 169 180 179 187 200 209 197 189 195 188 176 174 182 185 187 185 200 189 176 188
Height
1518 1518 1517 1518 1521 1532 1536 1531 1526 1525 1525 1526 1525 1526 1529 1532 1535 1542 1538 1536 1536 1534 1533 1531 1530 1530 1529 1528 1528 1527 1527 1527 1527 1526 1526 1526 1525 1525 1524 1524 1523 1523 1522 1522 1521 1521 1520 1519 1517
1518 1518 1519 1519 1529 1542 1539 1530 1527 1525 1526 1526 1527 1529 1530 1534 1535 1536 1536 1537 1536 1535 1534 1533 1532 1531 1530 1530 1529 1529 1529 1528 1528 1528 1528 1528 1527 1526 1526 1525 1525 1524 1524 1523 1522 1522 1521 1520 1517
1518 1518 1520 1522 1532 1540 1538 1530 1526 1525 1525 1526 1529 1531 1533 1536 1536 1537 1537 1537 1537 1536 1535 1534 1533 1532 1532 1531 1531 1530 1530 1530 1530 1530 1529 1529 1529 1528 1527 1527 1526 1526 1525 1524 1524 1523 1522 1521 1519
1519 1520 1521 1529 1534 1531 1529 1527 1526 1526 1527 1528 1530 1534 1536 1538 1537 1537 1538 1538 1538 1537 1536 1535 1535 1534 1533 1533 1533 1532 1532 1532 1532 1531 1531 1531 1530 1530 1529 1529 1528 1527 1526 1526 1525 1525 1524 1523 1521
1519 1520 1527 1535 1533 1529 1527 1526 1526 1527 1529 1531 1531 1535 1538 1539 1538 1538 1539 1539 1539 1538 1537 1537 1536 1536 1535 1535 1534 1534 1534 1534 1533 1533 1533 1532 1532 1532 1531 1530 1530 1529 1528 1528 1527 1526 1525 1525 1523
1520 1522 1536 1541 1535 1529 1528 1527 1527 1529 1531 1533 1533 1536 1539 1540 1540 1540 1540 1540 1540 1539 1539 1539 1538 1538 1537 1536 1536 1536 1535 1535 1535 1535 1535 1534 1534 1533 1533 1532 1531 1531 1530 1529 1529 1528 1527 1526 1526
1521 1526 1535 1536 1536 1532 1529 1528 1528 1530 1531 1533 1534 1537 1540 1541 1540 1541 1541 1541 1541 1541 1541 1540 1540 1539 1539 1538 1538 1537 1537 1537 1536 1536 1536 1536 1536 1535 1535 1534 1533 1533 1532 1531 1531 1530 1529 1528 1527
1520 1526 1533 1535 1535 1533 1529 1529 1530 1530 1532 1534 1534 1536 1539 1540 1541 1541 1542 1542 1542 1542 1542 1542 1541 1541 1540 1540 1539 1539 1538 1538 1538 1538 1538 1537 1537 1537 1536 1536 1535 1535 1534 1533 1532 1531 1530 1530 1529
1521 1530 1537 1534 1534 1532 1529 1529 1531 1532 1533 1534 1535 1536 1538 1540 1541 1542 1542 1543 1542 1542 1542 1542 1542 1542 1541 1541 1540 1540 1539 1539 1539 1539 1539 1539 1538 1538 1538 1537 1537 1536 1535 1535 1534 1533 1532 1531 1531
1522 1533 1531 1527 1527 1529 1529 1530 1532 1534 1534 1536 1537 1538 1539 1540 1541 1541 1542 1542 1543 1543 1543 1543 1543 1542 1542 1542 1541 1541 1541 1540 1540 1540 1540 1540 1539 1539 1539 1538 1538 1537 1537 1536 1535 1534 1534 1533 1532
1523 1528 1526 1526 1526 1528 1529 1531 1532 1533 1536 1536 1536 1537 1539 1540 1541 1541 1542 1542 1543 1543 1543 1543 1543 1543 1543 1542 1542 1542 1542 1541 1541 1541 1541 1540 1540 1540 1540 1539 1539 1538 1538 1537 1537 1536 1535 1535 1534
1524 1525 1525 1527 1527 1528 1530 1532 1533 1534 1535 1536 1536 1537 1538 1540 1541 1541 1542 1543 1543 1543 1543 1543 1544 1543 1543 1543 1543 1543 1542 1542 1542 1542 1541 1541 1541 1541 1541 1540 1540 1539 1539 1538 1538 1537 1537 1536 1535
1525 1526 1527 1527 1528 1529 1530 1532 1533 1535 1535 1536 1537 1538 1539 1540 1541 1542 1542 1543 1543 1544 1544 1544 1544 1544 1543 1543 1543 1543 1543 1542 1542 1542 1542 1542 1541 1541 1541 1541 1541 1540 1540 1539 1539 1538 1538 1537 1537
1525 1526 1527 1528 1528 1530 1531 1533 1534 1536 1536 1537 1538 1538 1540 1540 1541 1542 1542 1543 1543 1543 1544 1544 1544 1544 1544 1544 1544 1544 1543 1543 1543 1543 1542 1542 1542 1542 1542 1542 1541 1541 1541 1540 1540 1539 1539 1539 1538
1526 1528 1530 1529 1529 1530 1532 1536 1534 1534 1536 1536 1537 1538 1540 1540 1541 1541 1542 1542 1543 1543 1544 1544 1544 1544 1544 1544 1544 1544 1544 1544 1543 1543 1543 1543 1543 1542 1542 1542 1542 1542 1542 1541 1541 1540 1540 1540 1539
1527 1533 1539 1531 1529 1530 1535 1542 1534 1534 1535 1536 1537 1538 1539 1540 1541 1541 1541 1542 1543 1543 1544 1544 1544 1544 1544 1544 1544 1544 1544 1544 1544 1543 1543 1543 1543 1543 1542 1542 1542 1542 1542 1542 1542 1541 1541 1541 1540
1535 1542 1540 1533 1528 1529 1533 1538 1533 1533 1534 1535 1537 1538 1539 1539 1540 1540 1541 1541 1542 1542 1543 1543 1544 1544 1544 1544 1544 1544 1544 1544 1544 1543 1543 1543 1543 1543 1543 1542 1542 1542 1542 1542 1542 1542 1542 1541 1541
1541 1540 1538 1536 1528 1530 1535 1536 1533 1533 1533 1534 1536 1537 1538 1538 1539 1539 1540 1540 1541 1542 1542 1542 1543 1544 1544 1544 1544 1544 1544 1544 1543 1543 1543 1543 1543 1543 1542 1542 1542 1542 1542 1542 1542 1542 1542 1542 1542
1530 1534 1537 1532 1526 1530 1535 1535 1533 1532 1533 1534 1535 1535 1536 1537 1538 1539 1539 1539 1540 1541 1541 1541 1542 1543 1543 1543 1543 1543 1543 1543 1543 1543 1543 1542 1542 1542 1542 1542 1542 1542 1542 1542 1542 1542 1542 1542 1542
1529 1535 1535 1531 1525 1529 1535 1536 1532 1532 1532 1532 1533 1534 1535 1536 1537 1537 1538 1538 1538 1539 1539 1540 1541 1542 1542 1542 1543 1543 1543 1543 1543 1542 1542 1542 1542 1542 1542 1542 1542 1542 1542 1542 1542 1542 1542 1542 1542
1530 1533 1534 1533 1529 1529 1535 1541 1536 1532 1531 1532 1532 1532 1533 1534 1535 1536 1536 1537 1537 1538 1538 1539 1540 1541 1541 1541 1542 1542 1542 1542 1542 1542 1542 1541 1541 1541 1541 1541 1541 1541 1541 1541 1542 1542 1542 1542 1542
1533 1525 1526 1528 1537 1544 1539 1555 1541 1534 1532 1531 1530 1531 1532 1533 1533 1534 1535 1536 1536 1537 1537 1538 1539 1539 1540 1540 1540 1540 1540 1540 1541 1541 1541 1541 1541 1540 1540 1540 1540 1540 1541 1541 1541 1541 1541 1541 1541
1525 1521 1523 1527 1535 1543 1542 1551 1546 1534 1535 1531 1529 1529 1530 1531 1532 1533 1534 1534 1535 1535 1536 1537 1537 1538 1538 1539 1539 1539 1539 1539 1540 1540 1540 1540 1540 1540 1539 1539 1539 1539 1540 1540 1540 1540 1540 1540 1540
1519 1524 1528 1535 1542 1554 1544 1550 1548 1537 1531 1527 1527 1527 1528 1529 1531 1532 1533 1533 1534 1534 1535 1535 1536 1536 1536 1537 1537 1538 1538 1538 1538 1538 1538 1538 1538 1538 1538 1538 1538 1538 1538 1538 1539 1539 1539 1539 1539
1523 1539 1554 1556 1562 1558 1541 1545 1544 1527 1523 1523 1524 1525 1527 1528 1529 1531 1531 1532 1532 1533 1533 1533 1534 1534 1535 1535 1535 1536 1536 1536 1536 1536 1537 1537 1537 1537 1537 1537 1537 1537 1537 1537 1537 1537 1537 1537 1538
1527 1537 1556 1564 1565 1556 1542 1545 1536 1524 1521 1521 1522 1524 1525 1527 1528 1529 1530 1530 1530 1531 1531 1532 1532 1532 1533 1533 1533 1534 1535 1535 1535 1535 1535 1535 1535 1535 1535 1535 1535 1535 1535 1535 1535 1536 1536 1536 1536
1527 1534 1535 1549 1551 1557 1551 1542 1532 1525 1524 1523 1523 1524 1525 1525 1526 1527 1528 1529 1529 1529 1530 1530 1531 1530 1531 1531 1532 1532 1533 1533 1533 1533 1533 1533 1533 1533 1533 1533 1533 1534 1534 1534 1534 1534 1534 1534 1534
1521 1527 1540 1548 1558 1563 1553 1547 1542 1531 1527 1524 1524 1524 1524 1525 1525 1526 1527 1527 1528 1528 1528 1529 1529 1529 1529 1529 1530 1530 1531 1531 1531 1531 1531 1531 1531 1531 1531 1531 1531 1532 1532 1532 1532 1532 1532 1532 1533
1525 1528 1535 1545 1550 1560 1562 1551 1525 1524 1523 1523 1523 1522 1523 1524 1524 1524 1525 1526 1526 1527 1527 1527 1527 1527 1527 1527 1528 1528 1528 1529 1529 1529 1529 1529 1529 1529 1529 1529 1529 1529 1529 1530 1530 1530 1530 1530 1531
1521 1526 1534 1547 1549 1551 1556 1547 1519 1519 1519 1520 1521 1521 1522 1523 1523 1523 1524 1524 1525 1525 1525 1525 1525 1525 1525 1525 1526 1526 1526 1526 1526 1526 1527 1527 1527 1527 1527 1527 1527 1527 1527 1527 1527 1528 1528 1528 1528